This is the latest recevied weather packets stored in our database for station/object W4SNA-3. If no packets are shown the sender has not sent any weather packets the latest 10 day(s).
| Time | Temp. | Humidity | Pressure | Rain* | Wind** | Luminosity | Snow |
|---|---|---|---|---|---|---|---|
| 1777676067 | 12.78° C | 67% | 1009 hPa | 0 mm | - | - | - |
| 1777675764 | 12.78° C | 67% | 1009 hPa | 0 mm | - | - | - |
| 1777675464 | 12.78° C | 66% | 1009 hPa | 0 mm | - | - | - |
| 1777675200 | 12.78° C | 65% | 1008.9 hPa | 0 mm | - | - | - |
| 1777674864 | 12.78° C | 65% | 1009 hPa | 0 mm | - | - | - |
| 1777674565 | 12.78° C | 64% | 1009 hPa | 0 mm | - | - | - |
| 1777674265 | 13.33° C | 65% | 1009 hPa | 0 mm | - | - | - |
| 1777673965 | 13.33° C | 63% | 1009 hPa | 0 mm | - | - | - |
| 1777673664 | 13.33° C | 64% | 1008.9 hPa | 0 mm | - | - | - |
| 1777673364 | 13.33° C | 63% | 1009 hPa | 0 mm | - | - | - |
| 1777673067 | 13.33° C | 63% | 1009 hPa | 0 mm | - | - | - |
| 1777672771 | 13.33° C | 62% | 1009.2 hPa | 0 mm | - | - | - |
| 1777672482 | 13.89° C | 61% | 1009.3 hPa | 0 mm | - | - | - |
| 1777672164 | 13.89° C | 60% | 1009 hPa | 0 mm | - | - | - |
| 1777671864 | 13.89° C | 62% | 1009 hPa | 0 mm | - | - | - |
| 1777671565 | 13.89° C | 59% | 1009.2 hPa | 0 mm | - | - | - |
| 1777671264 | 13.89° C | 61% | 1009.2 hPa | 0 mm | - | - | - |
| 1777670964 | 13.89° C | 60% | 1009.2 hPa | 0 mm | - | - | - |
| 1777670664 | 13.89° C | 59% | 1009.2 hPa | 0 mm | - | - | - |
| 1777670366 | 13.89° C | 57% | 1009.2 hPa | 0 mm | - | - | - |
| 1777670066 | 13.89° C | 60% | 1009.2 hPa | 0 mm | - | - | - |
| 1777669770 | 14.44° C | 59% | 1009.3 hPa | 0 mm | - | - | - |
| 1777669464 | 14.44° C | 56% | 1009.3 hPa | 0 mm | - | - | - |
| 1777669180 | 14.44° C | 58% | 1010.1 hPa | 0 mm | - | - | - |
| 1777668864 | 15° C | 56% | 1010.2 hPa | 0 mm | - | - | - |
* Rain latest hour (hover to see other rain measurements)
** Current wind speed in m/s (hover to see current wind gust speed)